Location: Burleson Alternative School
(32.5290°N, 97.3406°W)
Time: 11:02:26
(UTC+00:00)

Vanguard 2 Rocket - Pass Details

Date: 13 November 2025
Orbit: 553 x 3287 km, 32.9° (Epoch: 07 December)

Event Time Altitude Azimuth Distance (km) Brightness Sun altitude
Rises 01:58:22 0° 263° (W) 2,801 10.6 -31.3°
Reaches altitude 10° 02:00:19 10° 264° (W) 2,003 9.5 -31.7°
Enters shadow 02:03:00 41° 264° (W) 1,037 7.5 -32.3°
